Погода в Тукае

Россия / Оренбургская область     52°45′29″N   54°14′06″E
темп.,
°C
ветер,
м/с
пор.,
м/с
влажн.,
%
обл.,
%
осадки,
мм/ч
давл.,
гПа
погр.,
м
4 марта, чт
чт423:00−8зсз489778 0.1 1004148
02:00−11зсз479769 0.0 100597
05:00−10зсз499884 0.1 1007180
08:00−12з469890 0.1 1008118
11:00−11зюз599695 0.1 1009288
14:00−7юз7119398 0.0 1008444
17:00−6юз9159399 0.3 1007676
20:00−5юз91795100 0.4 1005845
5 марта, пт
пт523:00−2юз111895100 1.6 1003908
02:00−1зюз111795100 1.4 1003948
05:00−2зюз91595100 1.9 1004849
08:00−3юз91594100 0.6 1005630
11:00−3юз91596100 1.8 1005668
14:00−1юз91396100 1.7 1005801
17:000юз71298100 2.7 1005661
20:000зюз71298100 1.9 1006627
6 марта, сб
сб623:00−4с3796100 3.1 1009245
02:00−7сз2395100 0.4 101142
05:00−9с2292100 0.4 101321
08:00−11ссв1287100 0.0 101321
11:00−8св1182100 0.0 101379
14:00−6в2282100 0.0 1011246
17:00−5всв2389100 0.0 1009293
20:00−7св2294100 0.3 100836
7 марта, вс
вс723:00−8сз2395100 0.6 100865
02:00−13сз349090 0.0 100940
05:00−17зсз339861 0.0 101122
08:00−18зсз44100100 0.0 101363
11:00−18зсз479793 0.1 1015237
14:00−15зсз469298 0.0 1016306
17:00−15зсз359379 0.0 1017260
20:00−19ююз231000 0.0 101720
8 марта, пн
пн823:00−20ю44947 0.0 101753
02:00−17ю5128968 0.0 1014252
05:00−11ююз8168784 0.0 1011533
08:00−9ююз101988100 0.1 1008669
11:00−6ююз111791100 0.3 1006989
14:00−4юз111694100 0.9 10051096
17:00−4юз101594100 1.8 10051052
20:00−4юз8169299 0.4 1006700